Wind_Speed
98 93 80 75 67 71 79 84 87 89 93 93 93 97 105 117 112 109 101 101 99 99 90 85 93 88 88 79 60 66 72 67 61 55 52 49 46 42 37 34 31 25 22 19 16 13 12
98 96 85 74 75 84 87 78 71 72 77 91 96 96 104 112 119 115 114 110 105 102 102 91 87 96 94 85 74 68 71 71 68 61 55 51 52 46 40 37 33 30 27 24 20 17 15
102 100 89 80 81 90 80 71 64 60 60 67 82 95 98 107 118 121 121 116 115 107 106 101 90 92 95 89 84 74 66 73 71 65 59 56 50 50 46 41 39 36 32 29 26 23 20
110 103 93 86 85 86 74 63 56 56 56 56 66 83 96 100 110 124 127 124 119 118 111 109 98 93 97 97 91 81 71 66 74 69 63 60 55 54 49 46 42 39 36 33 32 28 24
111 107 96 89 86 83 68 57 51 50 54 56 57 67 85 100 107 116 127 130 124 118 115 116 111 91 99 100 95 89 84 75 68 76 71 65 59 58 52 48 46 41 40 38 38 32 29
112 108 100 91 87 79 66 53 45 43 45 51 55 61 72 91 104 112 120 130 133 126 123 121 120 111 97 98 101 97 91 85 68 79 74 68 62 58 57 50 45 51 47 43 40 38 36
115 109 100 92 89 81 66 53 41 36 35 39 48 57 65 78 97 106 111 128 137 133 132 130 117 112 96 105 106 104 97 91 84 68 75 68 63 55 62 58 61 57 50 46 43 42 39
119 111 105 94 92 83 68 55 42 33 29 31 39 50 59 69 86 102 112 122 140 143 139 127 125 119 113 104 108 110 105 94 87 77 73 74 60 69 68 68 62 58 52 49 48 46 44
124 114 107 98 92 85 73 57 46 33 27 26 32 42 51 62 76 97 110 121 130 144 144 134 127 122 119 106 109 112 110 101 92 87 74 74 76 78 71 71 66 61 57 55 55 51 47
126 119 112 103 94 88 77 62 48 36 26 24 25 34 45 55 69 89 106 119 126 138 147 140 132 129 124 118 113 114 111 107 100 93 86 79 87 79 76 76 71 65 61 59 58 53 49
127 121 114 107 98 92 80 66 51 38 29 22 22 28 39 52 65 76 95 118 127 129 147 144 138 131 127 121 109 112 112 112 104 102 90 82 82 81 78 76 76 72 65 62 63 57 51
133 124 117 111 101 94 85 69 55 41 31 23 20 24 32 46 61 72 90 111 129 130 137 149 139 135 131 127 113 113 111 112 114 106 100 94 77 86 86 86 79 72 71 68 68 60 50
133 127 120 112 105 97 89 71 60 47 33 25 19 21 28 39 54 67 84 102 123 128 136 148 145 138 130 127 122 109 108 110 109 105 104 100 85 80 85 88 81 74 74 72 67 55 55
135 130 122 117 108 99 93 79 64 50 37 26 19 20 25 33 48 62 78 93 114 129 134 140 149 144 137 129 131 116 114 114 111 106 107 102 93 90 79 83 85 79 78 72 69 63 66
135 127 126 119 108 103 96 88 69 53 41 28 19 18 22 28 41 55 71 83 101 122 129 135 145 149 141 137 133 126 123 111 110 110 107 102 99 93 90 79 79 84 79 78 70 68 70
134 135 128 119 113 106 97 92 74 60 45 33 21 17 18 23 34 47 61 74 89 109 128 131 136 151 147 142 137 135 115 118 116 114 112 106 104 102 99 91 85 79 86 83 74 71 68
132 138 132 124 117 106 101 95 84 67 50 36 27 18 15 18 27 38 52 68 80 96 121 128 132 146 150 146 138 136 123 110 113 114 115 112 108 106 102 97 90 88 85 82 79 74 70
131 136 133 127 117 109 102 97 91 73 56 43 31 20 16 14 22 30 43 57 69 85 109 129 131 138 150 150 144 136 133 113 111 115 117 110 114 109 101 101 97 95 88 85 83 80 78
131 135 132 129 121 111 102 98 94 82 64 48 36 25 16 12 16 28 35 47 57 72 91 118 130 131 148 150 147 139 133 123 115 112 116 116 115 115 111 108 102 97 96 88 83 87 79
130 134 136 129 120 113 104 99 94 88 71 56 42 30 20 12 11 21 32 42 53 65 77 99 124 131 139 149 150 144 132 131 119 111 118 122 121 117 109 96 99 100 98 98 96 93 76
127 133 134 126 124 116 106 101 95 90 79 63 48 37 25 16 10 16 28 35 44 57 72 85 103 127 137 146 149 145 141 132 131 115 122 125 124 118 111 111 111 106 105 98 98 86 92
126 131 131 124 121 117 111 101 97 93 85 72 56 43 31 20 12 13 22 30 40 48 60 74 92 111 138 140 147 145 141 137 126 121 119 121 121 119 118 119 116 111 112 110 102 93 98
123 129 131 118 120 117 112 106 100 94 90 78 62 48 38 26 18 11 17 24 35 41 54 67 84 101 124 138 139 143 143 140 133 129 124 117 114 119 119 122 121 121 111 108 107 105 99
122 128 129 124 118 118 114 106 101 95 93 86 70 56 44 34 23 17 13 19 28 39 53 62 74 89 110 129 135 139 144 143 140 137 131 125 116 116 118 123 130 112 116 116 114 112 111
119 127 127 128 117 116 113 108 102 97 92 91 79 64 50 39 29 19 14 12 21 31 44 55 68 86 104 121 130 137 138 144 144 140 135 128 124 120 117 122 120 116 116 114 115 113 114
117 123 129 129 117 116 112 110 103 97 93 90 85 70 57 44 35 24 13 12 16 28 38 48 64 78 95 116 128 133 135 138 141 141 137 132 129 127 123 124 121 108 111 114 115 116 114
116 121 126 127 116 114 107 107 105 98 92 89 88 78 61 50 39 30 18 9 14 22 32 45 57 69 89 105 123 131 134 134 135 137 137 136 134 133 127 126 121 113 115 117 121 110 115
115 118 123 126 121 110 109 102 102 99 92 89 86 83 69 55 43 34 24 11 11 17 25 35 51 65 79 94 108 125 133 134 133 133 133 135 134 135 134 129 123 114 117 120 119 120 122
114 116 120 124 122 112 114 103 99 98 94 89 86 83 77 61 50 39 29 18 8 14 21 30 43 57 71 86 98 114 127 134 135 136 134 137 137 133 134 132 128 125 124 124 125 128 129
Wind_Direction
335 335 331 320 309 300 286 279 275 268 260 254 243 233 229 230 227 221 220 217 215 216 217 218 223 222 221 221 221 234 225 220 222 218 223 225 230 227 225 226 221 215 215 207 205 201 200
338 337 332 326 315 304 301 297 286 273 261 253 250 243 229 224 226 223 219 217 216 215 217 214 218 222 220 217 220 224 229 219 219 218 220 226 227 222 221 228 221 218 217 212 210 207 205
342 339 335 330 322 315 314 306 294 281 265 249 243 240 235 228 221 222 217 216 216 216 216 213 215 220 219 218 218 220 225 225 219 216 217 223 228 223 220 225 229 217 214 215 212 211 212
344 345 341 335 330 324 320 309 298 285 273 258 242 234 233 228 226 219 217 216 215 216 217 217 213 218 217 218 218 215 219 231 222 218 217 221 223 229 220 222 227 222 215 217 218 215 216
345 348 345 340 336 331 325 315 300 282 270 260 247 234 228 226 222 222 217 215 214 214 213 217 216 211 217 219 215 216 217 225 229 221 215 221 221 226 220 218 226 224 223 220 220 217 217
349 350 350 345 344 338 331 321 305 285 265 255 248 238 227 224 222 219 219 215 213 213 213 214 216 212 215 219 216 216 217 222 223 227 218 218 221 224 226 221 220 226 224 219 219 218 218
351 352 353 351 349 344 338 329 315 295 273 255 244 237 229 221 220 216 214 215 211 212 212 213 215 214 208 216 218 216 217 220 223 226 223 222 221 223 222 215 216 221 215 213 212 218 218
357 356 355 354 353 350 345 337 326 308 285 263 247 237 229 222 217 215 212 214 211 213 214 212 213 213 209 210 217 220 218 219 221 222 228 222 227 223 224 221 219 220 218 216 226 221 223
358 358 358 356 356 356 349 345 335 320 298 272 253 241 230 223 216 214 212 212 215 212 212 211 211 212 212 211 215 220 221 219 220 220 223 223 219 221 223 227 223 220 220 222 221 221 220
358 360 359 357 357 358 353 349 343 329 312 284 258 241 232 222 217 213 210 211 213 213 213 210 209 211 213 212 214 219 220 218 218 220 223 225 221 220 222 225 228 224 219 221 227 221 221
358 1 1 360 359 0 357 353 349 338 321 298 266 244 229 223 218 212 211 210 212 211 212 211 209 209 211 211 213 216 219 220 219 219 222 222 226 224 226 225 227 227 221 221 221 218 217
0 1 2 1 1 3 2 357 352 345 331 313 277 250 233 222 218 211 210 209 211 209 211 212 209 209 210 211 210 211 214 219 220 218 220 220 219 224 223 224 224 229 228 224 223 220 222
360 -0 2 3 3 4 6 1 356 350 340 324 296 258 237 225 219 213 211 209 210 208 210 211 209 209 209 212 212 212 213 218 222 219 219 219 222 224 227 227 227 229 233 234 231 237 224
1 359 2 3 4 4 7 4 359 355 345 335 312 269 245 228 220 216 213 211 211 208 209 210 208 208 209 210 214 213 215 214 215 218 217 220 222 225 228 234 232 229 231 234 232 229 227
3 1 3 5 5 5 7 7 2 359 352 343 325 289 257 234 224 216 216 214 213 210 209 210 209 209 209 210 211 212 215 215 218 218 217 218 220 226 228 229 232 232 232 231 233 233 230
4 4 1 4 5 5 7 9 6 2 358 349 336 309 273 241 230 222 215 217 215 211 209 209 209 209 209 212 212 212 211 218 217 218 219 220 223 226 229 229 229 234 235 233 233 236 237
3 3 2 3 4 6 6 10 9 5 1 355 343 326 293 253 234 224 218 216 217 213 210 209 209 209 209 210 212 213 214 213 215 218 221 222 224 224 227 230 232 234 235 236 236 236 237
2 3 3 3 4 6 7 9 11 7 3 359 352 336 313 279 242 230 223 217 215 215 211 209 209 210 209 211 213 212 214 214 214 216 221 220 223 224 228 232 234 237 233 234 234 237 235
1 4 3 3 3 4 7 8 12 11 6 3 357 346 325 299 254 235 221 223 216 215 212 212 210 210 210 211 213 212 214 213 212 214 218 223 223 225 226 231 233 237 238 238 237 236 237
1 3 3 0 3 4 6 8 11 13 10 5 2 354 336 312 260 239 229 215 216 215 212 211 212 209 212 211 213 214 214 214 214 216 218 219 221 223 226 231 233 235 238 238 241 239 238
2 2 2 360 1 2 4 8 8 13 13 10 5 0 350 330 290 235 235 230 220 214 210 211 210 210 211 212 212 214 214 215 217 219 219 223 227 228 225 227 229 229 231 231 235 235 237
1 2 4 1 359 1 2 6 8 9 12 11 9 5 357 342 314 270 232 229 221 219 217 210 208 210 210 212 213 213 216 217 217 219 221 223 228 229 229 231 230 231 232 235 239 241 243
-0 1 3 2 358 359 1 4 7 7 10 11 10 7 2 352 330 290 258 231 220 216 215 212 211 210 211 211 213 214 216 216 217 218 221 224 225 227 230 232 231 231 235 239 240 241 242
360 360 2 3 0 358 359 2 5 7 7 10 10 8 5 357 344 318 280 247 230 211 214 212 211 211 210 210 213 213 215 217 218 221 222 222 225 227 227 229 233 235 236 237 238 240 242
358 358 1 2 1 359 358 1 2 5 6 8 10 8 6 1 350 340 308 262 228 226 216 212 207 208 210 210 211 214 215 217 218 221 225 225 226 229 229 232 236 235 238 240 241 241 244
356 356 358 1 2 0 357 356 0 2 4 5 7 7 6 2 356 349 338 278 231 215 219 213 211 206 208 211 211 214 217 219 220 221 223 226 227 228 233 235 236 236 239 243 244 244 247
355 355 357 0 0 1 360 357 358 0 1 4 5 6 6 3 359 353 346 306 244 224 215 215 213 208 208 210 212 213 216 218 220 222 223 226 227 229 231 234 235 233 235 238 242 245 246
353 354 355 357 1 -0 1 356 356 357 359 1 3 5 4 4 0 356 350 332 260 232 222 216 212 211 210 211 213 213 215 217 219 220 224 225 227 229 230 233 235 234 236 238 241 240 241
349 352 353 355 357 358 3 360 357 356 356 358 360 3 4 4 1 357 354 343 310 245 225 220 216 211 212 211 213 214 215 217 218 221 223 225 227 229 231 232 233 234 235 236 238 239 240
Height
10574 10555 10535 10518 10502 10486 10468 10456 10449 10446 10445 10447 10457 10467 10481 10499 10518 10536 10549 10563 10574 10586 10599 10611 10621 10635 10651 10666 10674 10679 10692 10693 10704 10711 10717 10722 10729 10734 10739 10742 10745 10749 10752 10753 10754 10757 10758
10555 10534 10513 10492 10471 10446 10428 10413 10401 10398 10401 10405 10415 10430 10444 10461 10480 10502 10520 10536 10551 10564 10579 10593 10602 10618 10635 10652 10652 10666 10677 10684 10691 10699 10707 10714 10719 10726 10732 10736 10739 10744 10747 10749 10751 10753 10755
10537 10513 10490 10465 10438 10410 10389 10371 10360 10355 10356 10363 10372 10385 10406 10425 10442 10463 10490 10508 10526 10541 10556 10572 10586 10600 10619 10631 10636 10653 10664 10672 10681 10687 10696 10703 10712 10717 10722 10730 10733 10735 10740 10744 10746 10749 10751
10519 10493 10467 10440 10409 10382 10360 10342 10330 10325 10323 10328 10337 10349 10366 10386 10411 10429 10456 10479 10502 10519 10535 10554 10569 10582 10604 10608 10622 10637 10651 10660 10670 10678 10683 10693 10702 10710 10717 10721 10726 10729 10734 10738 10741 10744 10746
10503 10475 10448 10420 10388 10361 10338 10321 10309 10303 10298 10301 10308 10319 10333 10350 10373 10399 10425 10453 10476 10495 10514 10528 10548 10566 10582 10592 10608 10622 10636 10644 10655 10664 10670 10681 10692 10701 10707 10713 10720 10724 10727 10732 10735 10739 10741
10487 10459 10431 10403 10373 10344 10321 10305 10292 10284 10281 10280 10284 10292 10304 10321 10342 10370 10402 10429 10449 10473 10487 10499 10519 10546 10571 10578 10590 10603 10617 10629 10640 10650 10660 10672 10683 10692 10699 10708 10715 10712 10718 10724 10728 10732 10734
10473 10445 10416 10389 10359 10332 10308 10290 10279 10269 10264 10263 10266 10272 10282 10296 10313 10342 10374 10399 10426 10444 10448 10475 10512 10541 10549 10555 10564 10584 10600 10612 10625 10638 10654 10662 10674 10688 10689 10692 10689 10701 10709 10715 10719 10724 10727
10462 10432 10405 10377 10350 10321 10300 10280 10267 10258 10252 10249 10249 10255 10265 10278 10293 10315 10341 10368 10388 10405 10429 10463 10491 10509 10524 10533 10551 10568 10585 10601 10615 10632 10639 10654 10675 10666 10673 10677 10683 10693 10702 10708 10714 10716 10721
10451 10423 10395 10368 10340 10313 10290 10274 10258 10250 10244 10239 10238 10242 10249 10261 10274 10292 10317 10344 10365 10386 10404 10441 10473 10492 10512 10520 10532 10551 10568 10586 10602 10612 10632 10645 10649 10647 10661 10668 10675 10683 10692 10699 10700 10707 10712
10444 10416 10389 10362 10335 10307 10283 10266 10252 10242 10237 10232 10230 10232 10237 10246 10257 10268 10295 10319 10337 10365 10389 10419 10449 10468 10487 10500 10513 10535 10550 10564 10582 10601 10614 10622 10626 10640 10649 10655 10664 10673 10679 10688 10693 10699 10705
10438 10410 10384 10357 10330 10302 10278 10261 10247 10237 10230 10226 10223 10223 10226 10233 10241 10259 10277 10296 10316 10343 10367 10403 10424 10449 10467 10489 10510 10518 10530 10547 10571 10584 10600 10616 10622 10630 10639 10647 10650 10660 10669 10677 10680 10688 10697
10433 10405 10380 10354 10328 10301 10276 10257 10243 10232 10225 10220 10218 10216 10218 10222 10229 10242 10254 10270 10287 10321 10350 10376 10412 10432 10449 10470 10484 10489 10511 10532 10548 10563 10584 10590 10598 10607 10623 10623 10636 10652 10658 10662 10668 10680 10691
10428 10402 10376 10352 10327 10301 10276 10256 10240 10229 10219 10213 10211 10210 10210 10214 10220 10231 10240 10254 10268 10304 10323 10356 10392 10414 10442 10457 10469 10485 10501 10519 10539 10559 10571 10585 10590 10602 10609 10616 10626 10639 10647 10654 10662 10676 10685
10426 10400 10374 10350 10327 10302 10277 10256 10239 10226 10217 10209 10205 10203 10204 10208 10211 10220 10229 10242 10261 10286 10306 10333 10367 10392 10411 10435 10448 10464 10478 10493 10515 10540 10549 10571 10581 10592 10603 10608 10623 10629 10633 10650 10655 10665 10667
10425 10399 10374 10351 10327 10303 10280 10259 10241 10226 10215 10206 10199 10197 10199 10202 10206 10213 10220 10234 10249 10271 10294 10321 10351 10373 10399 10409 10424 10439 10460 10491 10511 10522 10537 10558 10563 10568 10580 10591 10600 10613 10627 10632 10641 10651 10653
10425 10400 10375 10351 10328 10306 10283 10261 10241 10226 10213 10205 10197 10192 10194 10197 10201 10207 10216 10225 10236 10254 10276 10303 10329 10351 10377 10394 10407 10422 10446 10477 10489 10508 10522 10539 10544 10554 10563 10570 10584 10604 10602 10616 10629 10640 10650
10425 10399 10375 10351 10329 10308 10287 10264 10243 10227 10213 10204 10197 10191 10189 10191 10194 10200 10208 10217 10227 10241 10264 10291 10314 10337 10355 10373 10394 10415 10442 10463 10480 10497 10501 10520 10528 10535 10542 10566 10579 10584 10596 10609 10618 10627 10638
10426 10398 10372 10351 10330 10310 10290 10268 10246 10230 10216 10203 10196 10190 10185 10187 10190 10193 10199 10206 10219 10233 10252 10273 10294 10322 10339 10357 10375 10398 10422 10447 10461 10471 10482 10501 10502 10527 10547 10542 10558 10570 10581 10587 10599 10614 10619
10426 10399 10375 10353 10331 10312 10292 10272 10249 10231 10218 10206 10196 10189 10184 10183 10185 10186 10193 10199 10212 10223 10243 10264 10284 10310 10324 10344 10362 10384 10408 10430 10437 10451 10464 10480 10498 10508 10511 10526 10549 10566 10574 10582 10587 10583 10605
10427 10400 10376 10352 10334 10314 10295 10277 10256 10236 10221 10208 10197 10190 10183 10180 10181 10182 10184 10193 10197 10212 10232 10247 10270 10295 10311 10331 10351 10377 10399 10409 10426 10443 10444 10447 10465 10488 10515 10547 10536 10544 10555 10563 10559 10566 10600
10426 10402 10377 10353 10339 10316 10298 10279 10262 10242 10225 10212 10199 10189 10182 10177 10177 10179 10178 10184 10192 10202 10213 10231 10257 10280 10292 10314 10338 10362 10377 10391 10414 10426 10418 10432 10454 10482 10506 10503 10501 10517 10520 10526 10524 10566 10550
10428 10406 10382 10356 10335 10318 10298 10284 10269 10246 10228 10213 10202 10190 10182 10177 10173 10173 10177 10179 10187 10197 10208 10223 10238 10251 10274 10298 10321 10354 10367 10387 10406 10407 10409 10422 10450 10464 10478 10475 10490 10502 10503 10509 10528 10552 10549
10429 10409 10387 10363 10338 10318 10302 10283 10266 10250 10231 10216 10206 10193 10183 10178 10172 10170 10170 10177 10181 10189 10198 10209 10221 10239 10261 10287 10309 10329 10343 10353 10366 10379 10394 10409 10434 10440 10459 10458 10470 10471 10501 10517 10521 10526 10536
10430 10410 10389 10367 10343 10321 10303 10285 10267 10253 10237 10220 10206 10195 10184 10177 10173 10168 10168 10169 10175 10185 10187 10196 10213 10233 10249 10267 10288 10302 10318 10336 10351 10363 10372 10393 10410 10417 10435 10434 10424 10492 10484 10490 10500 10510 10514
10429 10410 10391 10370 10347 10326 10306 10289 10271 10256 10242 10226 10211 10197 10187 10177 10172 10168 10165 10167 10170 10174 10182 10191 10201 10213 10228 10244 10266 10281 10300 10315 10332 10350 10363 10385 10396 10399 10410 10415 10434 10460 10466 10482 10492 10504 10502
10429 10411 10391 10372 10353 10331 10311 10293 10276 10259 10245 10232 10216 10202 10189 10179 10170 10166 10164 10161 10163 10168 10171 10180 10189 10201 10215 10229 10247 10263 10285 10305 10319 10337 10350 10364 10377 10382 10391 10396 10411 10462 10462 10464 10469 10477 10494
10427 10410 10392 10374 10357 10338 10316 10298 10280 10264 10249 10235 10221 10205 10192 10180 10172 10164 10161 10159 10157 10160 10167 10172 10179 10192 10198 10210 10225 10248 10267 10283 10298 10320 10333 10342 10351 10361 10373 10377 10397 10431 10437 10437 10434 10478 10470
10426 10410 10393 10376 10360 10340 10321 10302 10284 10267 10252 10237 10226 10209 10195 10183 10172 10165 10160 10157 10154 10154 10159 10167 10173 10179 10188 10198 10212 10230 10247 10266 10282 10298 10310 10322 10330 10341 10352 10360 10379 10412 10413 10417 10429 10433 10431
10423 10407 10393 10376 10360 10343 10325 10304 10286 10268 10254 10239 10225 10211 10197 10183 10174 10166 10160 10155 10153 10151 10152 10158 10165 10172 10177 10186 10201 10210 10229 10246 10265 10274 10288 10294 10307 10323 10331 10347 10357 10369 10379 10383 10390 10394 10402